Weather History for Marfa, TX

Change the Weather History Date:

Sunday, November 4, 2012

  Actual Average Record
Temperature  
Mean Temperature 58 °F -  
Max Temperature 73 °F 66 °F 78 °F (2005)
Min Temperature 42 °F 37 °F 23 °F (2004)
Degree Days  
Heating Degree Days 8    
Growing Degree Days 8 (Base 50)    
Moisture  
Dew Point 42 °F    
Average Humidity 66    
Maximum Humidity 87    
Minimum Humidity 29    
Precipitation  
Precipitation 0.00 in - - ()
Sea Level Pressure  
Sea Level Pressure 30.23 in    
Wind  
Wind Speed 5 mph (North)    
Max Wind Speed 22 mph    
Max Gust Speed -    
Visibility 10 miles    
Events      
Averages and records for this station are not official NWS values.
T = Trace of Precipitation, MM = Missing Value Source: NWS Daily Summary

Daily Weather History Graph

Daily Weather History Graph

Search for Another Location

Airport:

Trip Planner

Search our weather history database for the weather conditions in past years. The results will help you decide how hot, cold, wet, or windy it might be!

Date:

Astronomy

Nov. 04, 2012 Rise Set
Actual Time 7:13 AM CST 6:05 PM CST
Civil Twilight 6:48 AM CST 6:30 PM CST
Nautical Twilight 6:19 AM CST 6:59 PM CST
Astronomical Twilight 5:51 AM CST 7:27 PM CST
Moon 10:49 PM CST (11/4) 11:54 AM CST (11/4)
Length of Visible Light 11h 42m
Length of Day
10h 52m
Waning Gibbous, 72% of the Moon is Illuminated
Nov 4
Waning Gibbous
Nov 6
Last Quarter
Nov 13
New
Nov 20
First Quarter
Nov 28
Full

Hourly Weather History & Observations

Time (CST) Temp. Windchill Dew Point Humidity Pressure Visibility Wind Dir Wind Speed Gust Speed Precip Events Conditions
12:15 AM 46.4 °F 42.9 °F 42.8 °F 87% 30.21 in 10.0 mi North 6.9 mph - N/A   Clear
12:35 AM 46.4 °F 42.9 °F 42.8 °F 87% 30.21 in 10.0 mi North 6.9 mph - N/A   Clear
12:55 AM 46.4 °F 42.4 °F 42.8 °F 87% 30.21 in 10.0 mi North 8.1 mph - N/A   Clear
1:15 AM 48.2 °F - 42.8 °F 82% 30.21 in 10.0 mi North 8.1 mph - N/A   Clear
1:35 AM 46.4 °F 42.9 °F 42.8 °F 87% 30.21 in 10.0 mi NNW 6.9 mph - N/A   Clear
1:55 AM 46.4 °F 42.9 °F 41.0 °F 81% 30.22 in 10.0 mi North 6.9 mph - N/A   Clear
1:15 AM 46.4 °F 41.9 °F 41.0 °F 81% 30.21 in 10.0 mi NNW 9.2 mph - N/A   Clear
1:35 AM 44.6 °F 39.2 °F 41.0 °F 87% 30.22 in 10.0 mi NNW 10.4 mph - N/A   Clear
1:55 AM 44.6 °F 40.2 °F 41.0 °F 87% 30.22 in 10.0 mi NNW 8.1 mph - N/A   Clear
2:15 AM 44.6 °F 40.2 °F 41.0 °F 87% 30.22 in 10.0 mi North 8.1 mph - N/A   Clear
2:35 AM 46.4 °F 42.9 °F 41.0 °F 81% 30.22 in 10.0 mi North 6.9 mph - N/A   Clear
2:55 AM 44.6 °F 40.7 °F 39.2 °F 81% 30.22 in 10.0 mi North 6.9 mph - N/A   Clear
3:15 AM 44.6 °F 40.7 °F 39.2 °F 81% 30.22 in 10.0 mi North 6.9 mph - N/A   Clear
3:35 AM 44.6 °F 40.7 °F 41.0 °F 87% 30.22 in 10.0 mi North 6.9 mph - N/A   Clear
3:55 AM 44.6 °F 39.7 °F 41.0 °F 87% 30.22 in 10.0 mi NNW 9.2 mph - N/A   Clear
4:15 AM 44.6 °F 40.7 °F 41.0 °F 87% 30.22 in 10.0 mi North 6.9 mph - N/A   Clear
4:35 AM 42.8 °F 39.3 °F 39.2 °F 87% 30.22 in 10.0 mi NNE 5.8 mph - N/A   Clear
4:55 AM 44.6 °F 40.7 °F 39.2 °F 81% 30.23 in 10.0 mi North 6.9 mph - N/A   Clear
5:15 AM 42.8 °F 38.6 °F 39.2 °F 87% 30.23 in 10.0 mi North 6.9 mph - N/A   Clear
5:35 AM 44.6 °F 40.2 °F 41.0 °F 87% 30.23 in 10.0 mi NNW 8.1 mph - N/A   Clear
5:55 AM 42.8 °F 38.0 °F 39.2 °F 87% 30.23 in 10.0 mi North 8.1 mph - N/A   Clear
6:15 AM 42.8 °F 37.5 °F 39.2 °F 87% 30.23 in 10.0 mi North 9.2 mph - N/A   Clear
6:35 AM 44.6 °F 40.7 °F 39.2 °F 81% 30.24 in 10.0 mi North 6.9 mph - N/A   Clear
6:55 AM 42.8 °F 38.6 °F 39.2 °F 87% 30.24 in 10.0 mi NNE 6.9 mph - N/A   Clear
7:15 AM 42.8 °F - 39.2 °F 87% 30.25 in 10.0 mi Calm Calm - N/A   Clear
7:35 AM 42.8 °F - 39.2 °F 87% 30.25 in 10.0 mi Calm Calm - N/A   Clear
7:55 AM 44.6 °F - 41.0 °F 87% 30.26 in 10.0 mi Calm Calm - N/A   Clear
8:15 AM 48.2 °F - 42.8 °F 82% 30.27 in 10.0 mi Calm Calm - N/A   Clear
8:35 AM 51.8 °F - 44.6 °F 76% 30.27 in 10.0 mi Calm Calm - N/A   Clear
8:55 AM 55.4 °F - 46.4 °F 72% 30.27 in 10.0 mi Calm Calm - N/A   Clear
9:15 AM 57.2 °F - 46.4 °F 67% 30.27 in 10.0 mi Calm Calm - N/A   Clear
9:35 AM 60.8 °F - 46.4 °F 59% 30.28 in 10.0 mi Calm Calm - N/A   Clear
9:55 AM 60.8 °F - 46.4 °F 59% 30.28 in 10.0 mi Calm Calm - N/A   Clear
10:15 AM 62.6 °F - 48.2 °F 59% 30.29 in 10.0 mi Calm Calm - N/A   Clear
10:35 AM 62.6 °F - 48.2 °F 59% 30.29 in 10.0 mi Calm Calm - N/A   Clear
10:55 AM 64.4 °F - 48.2 °F 56% 30.28 in 10.0 mi Calm Calm - N/A   Clear
11:15 AM 66.2 °F - 48.2 °F 52% 30.28 in 10.0 mi Calm Calm - N/A   Clear
11:35 AM 66.2 °F - 48.2 °F 52% 30.27 in 10.0 mi Calm Calm - N/A   Clear
11:55 AM 66.2 °F - 48.2 °F 52% 30.26 in 10.0 mi Calm Calm - N/A   Clear
12:15 PM 68.0 °F - 46.4 °F 46% 30.25 in 10.0 mi Calm Calm - N/A   Clear
12:35 PM 69.8 °F - 46.4 °F 43% 30.25 in 10.0 mi Calm Calm - N/A   Clear
12:55 PM 69.8 °F - 46.4 °F 43% 30.24 in 10.0 mi Calm Calm - N/A   Clear
1:15 PM 71.6 °F - 46.4 °F 41% 30.23 in 10.0 mi Calm Calm - N/A   Clear
1:35 PM 71.6 °F - 42.8 °F 35% 30.22 in 10.0 mi Calm Calm - N/A   Clear
1:55 PM 73.4 °F - 39.2 °F 29% 30.21 in 10.0 mi Calm Calm - N/A   Clear
2:15 PM 73.4 °F - 39.2 °F 29% 30.21 in 10.0 mi Calm Calm - N/A   Partly Cloudy
2:35 PM 73.4 °F - 39.2 °F 29% 30.20 in 10.0 mi Calm Calm - N/A   Partly Cloudy
2:55 PM 71.6 °F - 37.4 °F 29% 30.21 in 10.0 mi North 21.9 mph - N/A   Scattered Clouds
3:15 PM 69.8 °F - 41.0 °F 35% 30.20 in 10.0 mi NNE 13.8 mph - N/A   Overcast
3:35 PM 69.8 °F - 39.2 °F 33% 30.20 in 10.0 mi NE 8.1 mph - N/A   Scattered Clouds
3:55 PM 71.6 °F - 39.2 °F 31% 30.20 in 10.0 mi NE 8.1 mph - N/A   Scattered Clouds
4:15 PM 69.8 °F - 39.2 °F 33% 30.20 in 10.0 mi ENE 5.8 mph - N/A   Partly Cloudy
4:35 PM 69.8 °F - 39.2 °F 33% 30.21 in 10.0 mi Calm Calm - N/A   Mostly Cloudy
4:55 PM 71.6 °F - 39.2 °F 31% 30.21 in 10.0 mi SSW 9.2 mph - N/A   Scattered Clouds
5:15 PM 69.8 °F - 37.4 °F 31% 30.22 in 10.0 mi SW 4.6 mph - N/A   Scattered Clouds
5:35 PM 66.2 °F - 42.8 °F 43% 30.22 in 10.0 mi Calm Calm - N/A   Clear
5:55 PM 64.4 °F - 39.2 °F 40% 30.22 in 10.0 mi Calm Calm - N/A   Clear
6:15 PM 60.8 °F - 39.2 °F 45% 30.22 in 10.0 mi Calm Calm - N/A   Clear
6:35 PM 57.2 °F - 39.2 °F 51% 30.23 in 10.0 mi Calm Calm - N/A   Clear
6:55 PM 57.2 °F - 42.8 °F 59% 30.23 in 10.0 mi Calm Calm - N/A   Clear
7:15 PM 55.4 °F - 42.8 °F 63% 30.23 in 10.0 mi Calm Calm - N/A   Clear
7:35 PM 55.4 °F - 42.8 °F 63% 30.24 in 10.0 mi Calm Calm - N/A   Clear
7:55 PM 51.8 °F - 41.0 °F 67% 30.24 in 10.0 mi Calm Calm - N/A   Clear
8:15 PM 51.8 °F - 42.8 °F 71% 30.24 in 10.0 mi Calm Calm - N/A   Clear
8:35 PM 50.0 °F - 42.8 °F 76% 30.24 in 10.0 mi Calm Calm - N/A   Clear
8:55 PM 48.2 °F - 42.8 °F 82% 30.24 in 10.0 mi Calm Calm - N/A   Clear
9:15 PM 48.2 °F - 42.8 °F 82% 30.25 in 10.0 mi Calm Calm - N/A   Clear
9:35 PM 48.2 °F - 42.8 °F 82% 30.25 in 10.0 mi Calm Calm - N/A   Clear
9:55 PM 48.2 °F - 41.0 °F 76% 30.25 in 10.0 mi Calm Calm - N/A   Clear
10:15 PM 46.4 °F - 41.0 °F 81% 30.25 in 10.0 mi Calm Calm - N/A   Clear
10:35 PM 46.4 °F - 42.8 °F 87% 30.25 in 10.0 mi Calm Calm - N/A   Clear
10:55 PM 46.4 °F - 41.0 °F 81% 30.25 in 10.0 mi Calm Calm - N/A   Clear